Regional Weather Roundup
Issued by NWS

Home | Current Version | Previous Version | Text Only | Print | Product List | Glossary On
Versions: 1 2 3 4 5 6 7 8 9 10 11 12 13 14 15 16 17 18 19 20 21 22 23 24 25 26 27
000
ASUS44 KLIX 240813
RWRLA
LOUISIANA WEATHER ROUNDUP
NATIONAL WEATHER SERVICE NEW ORLEANS LA
300 AM CDT MON APR 24 2017

NOTE: "FAIR" INDICATES FEW OR NO CLOUDS BELOW 12,000 FEET WITH NO
      SIGNIFICANT WEATHER AND/OR OBSTRUCTIONS TO VISIBILITY.
      SKY/WX - SKY CONDITION AND SIGNIFICANT WEATHER.
      TMP - AIR TEMPERATURE.    DP   - DEWPOINT TEMPERATURE.
      RH  - RELATIVE HUMIDITY.  PRES - PRESSURE.
      HX  - HEAT INDEX.         WCI  - WIND CHILL INDEX.

*  THESE STATIONS ARE NOT NWS OR FAA STATIONS AND ARE NOT UNDER
   NWS QUALITY CONTROL.

LAZ040-048-061>063-065-066-069-240900-
SOUTHEAST LOUISIANA

CITY           SKY/WX    TMP DP  RH WIND       PRES   REMARKS
N.O. INTL ARPT PTCLDY    54  50  86 W7        29.90F
N.O. LAKEFRONT CLEAR     63  51  65 NW12G22   29.89F
N.O. DOWNTOWN*   N/A     61  49  64 VRB3        N/A
RESERVE*       NOT AVBL
SLIDELL        PTCLDY    52  50  93 CALM      29.87F
BATON ROUGE    CLEAR     51  49  92 CALM      29.90F
BOOTHVILLE     PTCLDY    62  51  67 N14G23    29.89F
BELLE CHASSE   CLEAR    N/A N/A N/A W3        29.89F
BOGALUSA*      NOT AVBL
GALLIANO*      SUNNY     52  48  86 NW3       29.91F
NEW ROADS*     FAIR      49  48  97 SW3       29.91F
GONZALES*      FAIR      50  49  97 CALM      29.90F
HAMMOND*       CLEAR     50  48  93 W3        29.89F
HOUMA*         CLEAR     50  49  98 CALM      29.91F
PORT FOURCHON* SUNNY     59  52  77 N8        29.91F

$$

LAZ041-044-053-054-240900-
SOUTHWEST LOUISIANA

CITY           SKY/WX    TMP DP  RH WIND       PRES   REMARKS
LAKE CHARLES   CLEAR     51  50  96 CALM      29.92F FOG
LAFAYETTE      CLEAR     55  52  89 SW3       29.92F
PATTERSON      CLEAR     52  51  97 CALM      29.92F
SALT POINT       N/A     55  52  89 CALM      29.91F
NEW IBERIA     CLEAR     50  47  89 CALM      29.92F
CHENAULT AIRPK CLEAR     51  49  95 SW3       29.92F

$$

LAZ027-028-240900-
CENTRAL LOUISIANA

CITY           SKY/WX    TMP DP  RH WIND       PRES   REMARKS
FORT POLK      PTCLDY    49  48  96 CALM      29.90F
ALEXANDRIA INT CLEAR     48  48 100 CALM      29.90F
ALEXANDRIA     CLEAR     47  46  97 CALM      29.90F FOG

$$

LAZ001-002-240900-
NORTHWEST LOUISIANA

CITY           SKY/WX    TMP DP  RH WIND       PRES   REMARKS
SHREVEPORT     CLEAR     49  46  90 CALM      29.91F
BARKSDALE AFB  CLEAR     47  47  99 CALM      29.91F
DTN SHREVEPORT CLEAR     53  50  89 W3        29.92F

$$

LAZ014-016-240900-
NORTHEAST LOUISIANA

CITY           SKY/WX    TMP DP  RH WIND       PRES   REMARKS
MONROE         FOG       49  48  97 CALM      29.91F VSB 1
TALLULAH       CLEAR     50  48  93 CALM      29.89F

$$





USA.gov is the U.S. government's official web portal to all federal, state and local government web resources and services.